This is the latest recevied weather packets stored in our database for station/object EB1TK-13. If no packets are shown the sender has not sent any weather packets the latest 10 day(s).
| Time | Temp. | Humidity | Pressure | Rain* | Wind** | Luminosity | Snow |
|---|---|---|---|---|---|---|---|
| 1777837337 | 12.78° C | 96% | 1013.3 hPa | 0.25 mm | - | - | - |
| 1777836737 | 12.78° C | 96% | 1013.2 hPa | 0.25 mm | - | - | - |
| 1777836135 | 12.78° C | 96% | 1013.1 hPa | 0.25 mm | - | - | - |
| 1777835535 | 13.33° C | 97% | 1013 hPa | 0.25 mm | - | - | - |
| 1777834936 | 13.33° C | 97% | 1013 hPa | 0.25 mm | - | - | - |
| 1777834341 | 12.78° C | 96% | 1012.8 hPa | 0.25 mm | - | - | - |
| 1777833737 | 12.78° C | 96% | 1012.8 hPa | 0.25 mm | - | - | - |
| 1777833139 | 12.78° C | 96% | 1012.8 hPa | 0.25 mm | - | - | - |
| 1777832537 | 12.78° C | 96% | 1012.8 hPa | 0.25 mm | - | - | - |
| 1777831935 | 12.78° C | 96% | 1012.7 hPa | 0.25 mm | - | - | - |
| 1777831338 | 12.78° C | 96% | 1012.8 hPa | 0.51 mm | - | - | - |
| 1777830736 | 12.78° C | 96% | 1012.8 hPa | 0.76 mm | - | - | - |
| 1777830136 | 13.33° C | 96% | 1012.8 hPa | 1.27 mm | - | - | - |
| 1777829536 | 12.78° C | 96% | 1012.6 hPa | 1.52 mm | - | - | - |
| 1777828937 | 12.78° C | 96% | 1012.8 hPa | 2.03 mm | - | - | - |
| 1777828335 | 12.78° C | 96% | 1012.7 hPa | 2.29 mm | - | - | - |
| 1777827735 | 12.78° C | 96% | 1012.7 hPa | 2.29 mm | - | - | - |
| 1777827136 | 12.78° C | 96% | 1012.7 hPa | 2.29 mm | - | - | - |
| 1777826536 | 13.33° C | 95% | 1012.7 hPa | 1.78 mm | - | - | - |
| 1777825936 | 13.33° C | 96% | 1012.6 hPa | 1.52 mm | - | - | - |
| 1777825337 | 13.33° C | 95% | 1012.4 hPa | 1.52 mm | - | - | - |
| 1777824737 | 13.33° C | 95% | 1012.3 hPa | 1.52 mm | - | - | - |
| 1777824135 | 13.89° C | 95% | 1012.4 hPa | 1.52 mm | - | - | - |
| 1777823535 | 13.89° C | 95% | 1012.3 hPa | 1.02 mm | - | - | - |
| 1777822936 | 13.89° C | 95% | 1012.3 hPa | 1.02 mm | - | - | - |
* Rain latest hour (hover to see other rain measurements)
** Current wind speed in m/s (hover to see current wind gust speed)